Location: Brabourne
(51.1333°N, 1.0000°E)
Time: 16:23:28
(UTC+00:00)

SeaSat 1 - Pass Details

Date: 29 October 2021
Orbit: 743 x 747 km, 108.0° (Epoch: 30 November)

Event Time Altitude Azimuth Distance (km) Brightness Sun altitude
Exits shadow 19:12:42 10° 17° (NNE) 2,258 4.8 -25.2°
Drops below altitude 10° 19:13:05 10° 13° (NNE) 2,277 4.9 -25.2°
Sets 19:17:37 0° 334° (NNW) 3,205 6.2 -25.9°
